To NAV CANADA Home Page Login to a new session Search on AWWS site Feedback and Comments Disclaimer Vers la page française équivalente Tips FAQ What's new on the site To the Forecasts and Observations / NOTAM section To "File a Flight Plan" website Publications and other links Update of the User's profile FIC Telephone Numbers My Weather Data Folder Route Weather Data Regional Weather Data Local Weather Data To the Forecasts and Observations / NOTAM section
Request Generated 08/22/2017 at 03:20:04 UTC . Weather information available at that time is displayed.

METAR/TAF

FLIN FLON/MB    (show WxCam)

LWIS CYFO 220300Z AUTO 33005KT 16/07 A2996=
LWIS CYFO 220200Z AUTO 33007KT 18/07 A2994=
LWIS CYFO 220100Z AUTO 32006KT 18/07 A2993=

CYFO - No TAF is issued for this station

Your time UTC time
Weather data provided by Environment Canada and NAV CANADA